EW4694 Weather Reports


Display with metric or nautical units.
time (UTC)temp
F
wind
direction
speed
MPH
gust
MPH
rain 1hr
in
rain 24hr
in
rain mn
in
humidity
%
barometer
mb
20260508033050 41 293 0.0 0.0 0.00 0.00 0.00 43 1015.3
20260508031535 42 293 0.0 0.0 0.00 0.00 0.00 48 1015.2
20260508030031 42 293 0.0 0.0 0.00 0.00 0.00 53 1015.1
20260508024503 43 293 0.0 0.0 0.00 0.00 0.00 56 1014.9
20260508023058 44 293 0.0 0.0 0.00 0.00 0.00 60 1014.8
20260508021539 45 293 0.0 0.0 0.00 0.00 0.00 65 1014.5
20260508020041 46 293 0.0 0.0 0.00 0.00 0.00 66 1014.3
20260508014511 48 293 0.0 0.0 0.00 0.00 0.00 68 1014.1
20260508013007 50 293 0.0 0.0 0.00 0.00 0.00 65 1013.8
20260508011554 53 293 0.0 0.0 0.00 0.00 0.00 57 1013.6
20260508010041 54 293 0.0 0.0 0.00 0.00 0.00 47 1013.3
20260508004519 55 303 0.0 0.0 0.00 0.01 0.00 46 1013.3
20260508003015 56 321 0.0 0.0 0.00 0.01 0.00 48 1013.0
20260508001554 57 304 0.0 0.0 0.00 0.01 0.00 46 1012.7
20260508000049 58 304 0.0 0.0 0.00 0.01 0.00 44 1012.4
20260507234527 58 310 0.0 0.0 0.00 0.01 0.00 42 1012.3
20260507233041 60 305 0.0 1.0 0.00 0.01 0.00 41 1012.1
20260507231502 60 298 0.0 1.0 0.00 0.01 0.00 40 1011.9
20260507230059 60 330 0.0 0.0 0.00 0.01 0.00 43 1011.9
20260507224539 60 315 0.0 0.0 0.00 0.01 0.00 43 1011.9
20260507223032 61 293 0.0 9.0 0.00 0.01 0.00 41 1011.7
20260507221521 62 281 0.0 8.0 0.00 0.01 0.00 42 1011.7
20260507220011 61 296 0.0 1.0 0.00 0.01 0.00 43 1011.5
20260507214507 62 255 0.0 1.0 0.00 0.03 0.00 40 1011.3
20260507213007 63 264 0.0 0.0 0.00 0.03 0.00 43 1011.2
20260507211559 61 298 0.0 0.0 0.00 0.03 0.00 46 1011.1
20260507210058 62 301 0.0 0.0 0.00 0.03 0.00 43 1011.1
20260507204549 62 269 0.0 0.0 0.00 0.03 0.00 48 1011.1
20260507203047 61 305 0.0 0.0 0.00 0.03 0.00 47 1011.1
20260507201523 61 271 0.0 0.0 0.00 0.03 0.00 45 1011.2
20260507200018 62 288 0.0 0.0 0.00 0.03 0.00 45 1011.2
20260507194619 63 333 0.0 0.0 0.00 0.03 0.00 44 1011.5
20260507193055 62 311 0.0 1.0 0.00 0.03 0.00 47 1011.8
20260507191534 60 281 0.0 0.0 0.00 0.03 0.00 49 1011.8
20260507190025 60 329 0.0 0.0 0.00 0.03 0.00 50 1011.8
20260507184505 61 304 0.0 0.0 0.00 0.03 0.00 48 1011.9
20260507183001 62 287 0.0 0.0 0.00 0.03 0.00 50 1011.9
20260507181538 61 301 0.0 0.0 0.00 0.03 0.00 54 1012.0
20260507180037 60 274 0.0 0.0 0.00 0.03 0.00 52 1012.1
20260507174516 61 327 0.0 1.0 0.00 0.03 0.00 50 1012.2
20260507173008 60 296 0.0 0.0 0.00 0.03 0.00 55 1012.4
20260507171554 59 274 0.0 1.0 0.00 0.03 0.00 57 1012.6
20260507170044 59 360 0.0 0.0 0.00 0.03 0.00 52 1012.9
20260507164528 59 355 0.0 0.0 0.00 0.04 0.00 51 1013.0
20260507163018 59 288 0.0 0.0 0.00 0.04 0.00 54 1013.0
20260507161604 58 292 0.0 0.0 0.00 0.04 0.00 54 1013.2
20260507160051 58 308 0.0 0.0 0.00 0.04 0.00 54 1013.4
20260507154529 58 296 0.0 0.0 0.00 0.05 0.00 57 1013.6
20260507153028 57 279 0.0 0.0 0.00 0.05 0.00 58 1013.5
20260507151505 56 319 0.0 0.0 0.00 0.05 0.00 56 1013.6
20260507150103 56 323 0.0 0.0 0.00 0.05 0.00 55 1013.7
20260507144539 55 278 0.0 0.0 0.00 0.05 0.00 56 1014.0
20260507143033 55 344 0.0 0.0 0.00 0.05 0.00 60 1014.2
20260507141512 56 313 0.0 0.0 0.00 0.05 0.00 64 1014.6
20260507140007 55 275 0.0 0.0 0.00 0.05 0.00 63 1014.7
20260507134546 54 313 0.0 0.0 0.00 0.06 0.00 67 1014.8
20260507133041 54 64 0.0 0.0 0.00 0.06 0.00 60 1015.0
20260507131527 52 187 0.0 0.0 0.00 0.06 0.00 39 1015.1
20260507130016 50 187 0.0 0.0 0.00 0.06 0.00 13 1015.2
20260507124614 48 187 0.0 0.0 0.00 0.06 0.00 1 1015.2
20260507123050 48 188 0.0 0.0 0.00 0.06 0.00 1 1015.3
20260507121545 48 153 0.0 0.0 0.00 0.06 0.00 1 1015.1
20260507120038 48 164 0.0 0.0 0.00 0.06 0.00 1 1015.1
20260507114519 48 171 0.0 0.0 0.00 0.07 0.00 1 1014.8
20260507113059 48 156 0.0 0.0 0.00 0.07 0.00 1 1014.6
20260507111556 47 156 0.0 0.0 0.00 0.07 0.00 1 1014.4
20260507110036 0 0.0 0.0 0.00 0.07 0.00 1014.3
20260507104528 0 0.0 0.0 0.00 0.07 0.00 1014.1
20260507103008 0 0.0 0.0 0.00 0.07 0.00 1014.0
20260507101507 0 0.0 0.0 0.00 0.07 0.00 1013.8
20260507100043 0 0.0 0.0 0.00 0.07 0.00 1013.8
20260507094537 0 0.0 0.0 0.00 0.08 0.00 1013.9
20260507093015 0 0.0 0.0 0.00 0.08 0.00 1013.9
20260507091511 0 0.0 0.0 0.00 0.08 0.00 1013.7
20260507090054 0 0.0 0.0 0.00 0.08 0.00 1013.7
20260507084545 0 0.0 0.0 0.00 0.10 0.00 1013.7
20260507083024 49 184 0.0 0.0 0.00 0.10 0.00 1 1013.7
20260507081523 49 184 0.0 0.0 0.00 0.10 0.00 1 1013.8
20260507080005 49 184 0.0 0.0 0.00 0.10 0.00 1 1013.8
20260507074606 49 184 0.0 0.0 0.00 0.10 0.00 1 1013.9
20260507073133 50 184 0.0 0.0 0.00 0.10 0.00 1 1013.9
20260507071551 50 184 0.0 0.0 0.00 0.10 0.00 1 1013.7
20260507070047 50 184 0.0 0.0 0.00 0.10 0.00 1 1013.7
20260507064603 50 184 0.0 0.0 0.00 0.10 0.00 1 1013.6
20260507063047 50 184 0.0 0.0 0.00 0.10 0.00 1 1013.6
20260507061538 50 184 0.0 0.0 0.00 0.10 0.00 1 1013.7
20260507060012 51 184 0.0 0.0 0.00 0.10 0.00 1 1013.9
20260507054508 51 184 0.0 0.0 0.00 0.10 0.00 1 1013.9
20260507053047 51 184 0.0 0.0 0.00 0.10 0.00 1 1013.9
20260507051543 51 184 0.0 0.0 0.00 0.10 0.00 1 1014.1
20260507050021 51 184 0.0 0.0 0.00 0.10 0.00 1 1014.3
20260507044517 51 184 0.0 0.0 0.00 0.10 0.00 1 1014.2
20260507043058 51 184 0.0 0.0 0.00 0.10 0.00 1 1014.1
20260507041558 51 184 0.0 0.0 0.00 0.10 0.00 1 1014.0
20260507040030 51 184 0.0 0.0 0.00 0.10 0.00 1 1014.0
20260507034626 51 184 0.0 0.0 0.00 0.10 0.10 1 1013.8